Starlink 2408

operational
NORAD ID: 47823 Int'l Des: 2021-018 Owner: SPXS Country: US Constellation: starlink
LEOCIRCULARSTARLINK_TYPE

About Starlink 2408

Description loading...

Live Position

Loading 3D Globe...

Upcoming Passes

Altitude History

Altitude vs Time

uPlot chart will show altitude changes over time

Two-Line Element Set

1 47823U 21018AN 25305.15271556 .00000703 00000-0 66091-4 0 9999
2 47823 53.0546 108.6334 0001774 94.5636 265.5556 15.06397770257223
Epoch: Nov 1, 2025 • Age: 23 hours

Current Status

Altitude 547.2 km
Velocity 7.59 km/s
Sub-Earth Point 22.53°N, 174.77°W
Launch Date Mar 11, 2021
Age 4.6 years
Type internet

Technical Details

Classification Payload
Mass 260.00 kg
Dry Mass 248.00 kg
Total Mass 260.00 kg
Length 0.20 m
Diameter 2.80 m
Span 9.00 m
Shape Box + pan
Manufacturer SPXS
Bus Type Starlink
Phase Status In Orbit
Owner/State SPXS/US

Large Constellations

Loading constellations...